NOAA 16 DEB

Satellite information

Favourite Embed

Satellite Type and Status

DEBRISIN ORBIT

Key statistics

Satellite NOAA 16 DEB at a glance.

Uptime

8994

Days in orbit

Revolutions

≈ 14.4

Per day

Orbit

SSO

Sun Synchronous Orbit

Inclination

98.9

Latest

Satellite identification and parameters

Extended collection of information and parameters for NOAA 16 DEB.

Object identification

Identified? True

Debris? True

Object name: NOAA 16 DEB

International designator: 2000-055LD

Object number (NORAD): 41424

Object ID (CCSDS): 41424

Country: UNITED STATES OF AMERICA (US)

Current information (Y/N): Y

RCS size: SMALL

Orbital parameters

Period: 100.338 minutes

Inclination: 98.937 deg

SMA: 7152.7 km

Apoapsis: 790.82 km

Periapsis: 758.31 km

RAAN: 259.9703 deg

Eccentricy: 0.0022726

Argument of periapsis: 275.0667 deg

Mean anomaly: 84.7923 deg

Mean motion: 14.35151431 rev/day

Mean motion (dot): 0.0000786 rev/day2

B* drag term: 0.0027572 1/REarth

Two-line elements (TLE)

Creation date: May 5, 2025, 10:56 p.m.

Reference frame: TEME

Reference center: EARTH

Epoch: May 4, 2025, 5:29 a.m. UTC

TLE line 0: 0 NOAA 16 DEB

TLE line 1: 1 41424U 00055LD 25124.22856514 .00007860 00000-0 27572-2 0 9998

TLE line 2: 2 41424 98.9370 259.9703 0022726 275.0667 84.7923 14.35151431476042

Live tracking on map

Real-time ground track for satellite NOAA 16 DEB.

In-orbit conjunctions

A list of the most updated potential collisions computed for object NOAA 16 DEB.

Target Orbit TCA Probability of collision Miss distance Type
CZ-6A DEB LEO 2025-03-02 23:44:49 0.000122912 950.0 (m) DEBRIS
CZ-6A DEB LEO 2025-02-12 02:32:07 0.0002170417 640.0 (m) DEBRIS
DELTA 1 DEB SSO 2025-01-28 14:26:00 0.000131326 11.0 (m) DEBRIS
CZ-6A DEB LEO 2025-01-23 23:59:29 0.000100909 961.0 (m) DEBRIS
CZ-6A DEB LEO 2025-01-03 12:20:58 0.0005034947 143.0 (m) DEBRIS

Associated space launch

The NOAA K, L and M POES satellites begin the fifth generation of improved environmental monitoring in support of NOAA missions. The instrument payload has significant improvements and additions/deletions. The instrument changes have effected the spacecraft subsystems and data formats.

NOAA 16 DEB was lifted into orbit during the mission ‘Titan II SLV | NOAA 16’, on board a Titan II SLV space rocket.

The launch took place on Sept. 21, 2000, 10:22 a.m. from Space Launch Complex 4W.

For more information about the launch, click the button.

Launch to space Titan II SLV | NOAA 16
Titan II SLV | NOAA 16

Agency: N/A

Status: Launch Successful

Launch date: Sept. 21, 2000, 10:22 a.m. UTC

Rocket: Titan II SLV

Launch pad: Space Launch Complex 4W

Location: Vandenberg SFB, CA, USA

...

Latest news about this satellite

There are no fresh news available about this satellite. Check back as we update our databases every day.


Newsletter sign-up

Weekly statistics, charts and insights to help you stay on top of the space industry.